This is the latest recevied weather packets stored in our database for station/object N5CSU. If no packets are shown the sender has not sent any weather packets the latest 1 day(s).
| Time | Temp. | Humidity | Pressure | Rain* | Wind** | Luminosity | Snow |
|---|---|---|---|---|---|---|---|
| 1778041339 | 20.56° C | 79% | 1009.1 hPa | 0 mm | - | 0 W/m² | - |
| 1778041037 | 20.56° C | 80% | 1008.9 hPa | 0 mm | - | 0 W/m² | - |
| 1778040735 | 21.11° C | 80% | 1008.8 hPa | 0 mm | - | 0 W/m² | - |
| 1778040431 | 21.11° C | 80% | 1008.8 hPa | 0 mm | - | 0 W/m² | - |
| 1778040128 | 21.11° C | 80% | 1008.5 hPa | 0 mm | - | 0 W/m² | - |
| 1778039218 | 21.11° C | 80% | 1008.8 hPa | 0 mm | - | 0 W/m² | - |
| 1778038613 | 21.67° C | 81% | 1008.3 hPa | 0 mm | - | 0 W/m² | - |
| 1778038309 | 21.67° C | 81% | 1008.3 hPa | 0 mm | - | 0 W/m² | - |
| 1778037400 | 21.67° C | 80% | 1008 hPa | 0 mm | - | 0 W/m² | - |
| 1778037097 | 21.67° C | 82% | 1008.1 hPa | 0 mm | - | 0 W/m² | - |
| 1778036796 | 21.11° C | 83% | 1008.1 hPa | 0 mm | - | 0 W/m² | - |
| 1778035885 | 21.11° C | 87% | 1007.6 hPa | 0 mm | - | 0 W/m² | - |
| 1778035583 | 21.11° C | 88% | 1007.5 hPa | 0 mm | - | 0 W/m² | - |
| 1778035279 | 21.11° C | 89% | 1007.5 hPa | 0 mm | - | 0 W/m² | - |
| 1778034673 | 21.67° C | 90% | 1007 hPa | 0 mm | - | 0 W/m² | - |
| 1778034370 | 21.67° C | 90% | 1006.8 hPa | 0 mm | - | 0 W/m² | - |
| 1778033462 | 21.67° C | 88% | 1006.4 hPa | 0 mm | - | 0 W/m² | - |
| 1778033159 | 21.67° C | 89% | 1006.4 hPa | 0 mm | - | 0 W/m² | - |
| 1778032857 | 22.22° C | 88% | 1006.3 hPa | 0 mm | - | 0 W/m² | - |
| 1778032554 | 22.22° C | 89% | 1006 hPa | 0 mm | - | 0 W/m² | - |
| 1778032251 | 22.22° C | 88% | 1006.3 hPa | 0 mm | - | 0 W/m² | - |
| 1778031039 | 23.33° C | 92% | 1005.7 hPa | 0 mm | - | 0 W/m² | - |
| 1778030735 | 23.89° C | 94% | 1006 hPa | 0 mm | - | 0 W/m² | - |
| 1778030432 | 23.89° C | 95% | 1006.1 hPa | 0 mm | - | 0 W/m² | - |
| 1778030130 | 24.44° C | 95% | 1005.9 hPa | 0 mm | - | 0 W/m² | - |
* Rain latest hour (hover to see other rain measurements)
** Current wind speed in m/s (hover to see current wind gust speed)